STARLINK-32814, 62871

Orbit data source: Space-Track

STARLINK-32814, 62871 is a payload satellite owned by SpaceX/Seattle (US) in LEO that was launched on Sat, 01 Feb 2025 UTC via an FALCON 9 launch vehicle from the Air Force Western Test Range (AFWTR). Payload-class satellites include a variety of spacecraft equipped with specific instruments for various scientific and technological missions. These include communications satellites like Starlink; space stations such as the ISS; scientific satellites like the Hubble; Earth observation satellites from companies like Planet Labs, Umbra, and HawkEye 360; GPS; miniature CubeSats for education and research; and military/defense satellites.

Loading next visibility...
Identifier
62871, 2025-022T
Orbit
LEO
Country
Flag of USUS
Related business
Manufacturer
SpaceX/Seattle
Mission
Operational Commercial Communications
Bus & Motor
STARLINK V2M, Unknown motor
Mass
730 kg wet, ~700 kg dry
Launch date (UTC)
2025-02-01 (9 months ago)
Launch vehicle
FALCON 9
Launch site
Air Force Western Test Range (AFWTR)
Object type
Payload
Rocket body
Debris
Shape & HBR
Box + 2 Pan, 17.7 m
Radar Cross Section
33.884 m², Large (>1 m²)

Expand to show TLE details & history
Last TLE update: 10 hours ago

TLE from 10 hours ago
0 STARLINK-32814
1 62871U 25022T   25293.61867386  .00041321  00000-0  13986-2 0  9991
2 62871  53.1610  60.3009 0002403  89.0500 271.0777 15.30218977 40458
Epoch: 2025-10-20T14:50Z
TLE epoch observation values (Epoch: 2025-10-20T14:50:53.421Z)
Latitude
0.00005°
Longitude
168.25995°
Altitude
476.028 km
Speed
7.629 km/s
True Right ascension
04h 01m 12s
True Declination
0° 00' 00"
Sunlit
Object was in full shadow at epoch
Visualization orbit readout
Latitude
Unknown
Longitude
Unknown
Altitude
Unknown
Speed
Unknown
Apparent Right ascension
Unknown
Apparent Declination
Unknown
Sunlit
N/A
Visualization observer readout
Local Sidereal Time
19:30:14
Azimuth
Unknown
Elevation
Unknown
Doppler factor
Unknown
Orbital elements
Apogee altitude
477.062 km
Perigee altitude
473.768 km
Semi-major axis
6,853.552 km
Eccentricity
0.00024
Inclination
53.161°
RAAN
60.3009°
Arg. of periapsis
89.05°
True anomaly
271.05017°
Mean anomaly
271.0777°
Eccentric anomaly
271.06393°
Mean motion
3.82534 °/min
Orbital period
94.11 mins
BSTAR
0.0013986
Loading maneuver chart data...
Computing Atmospheric mass density...
Loading historical data...
Loading historical data...
Loading historical data...
Loading historical data...
Loading historical data...
Loading historical data...
Loading historical data...

Documentation

Showing up to 5 results
|